Tracking 19176 objects as of 26-May-2018
HD Live streaming from Space Station
objects crossing your sky now

AZUR (GRS A)

Track AZUR (GRS A) now!
10-day predictions
AZUR (GRS A) is classified as:


NORAD ID: 4221
Int'l Code: 1969-097A
Perigee: 363.1 km
Apogee: 1,268.7 km
Inclination: 102.7 °
Period: 101.1 minutes
Semi major axis: 7186 km
RCS: 0.3339 m2 (medium)
Launch date: November 8, 1969
Source: Germany (GER)
Launch site: AIR FORCE WESTERN TEST RANGE (AFWTR)
aabbcc
Your satellite tracking list
Your tracking list is empty




NASA's NSSDC Master Catalog

Two Line Element Set (TLE):
1  4221U 69097A   18145.55909322 +.00002630 +00000-0 +12828-3 0  9999
2  4221 102.7018 169.2312 0629996 350.4452 008.5173 14.24913383297929
Source of the keplerian elements: AFSPC